[[{"header":{"parameterUnit":"m.s-1","parameterCategory":1,"la1":30.2991,"la2":30.254,"lo1":-89.0895,"lo2":-89.0444,"dy":0.0017,"dx":0.0017,"nx":28,"ny":28,"refTime":"2024-12-24T03:00:00:Z","depth":0,"parameterNumber":2,"parameterNumberName":"U-component_of_WINDS"},"data":[0,0,0,0,0,0,0,0,0,0,0,0,0,0,0,0,0,0,0,0,0,0,0,0,0,0,0,0,0,0,0,0,0,0,0,0,0,0,0,0,0,0,0,0,0,0,0,0,0,0,0,0,0,0,0,0,0,0,-4.1034,-4.1033,0,-4.1007,-4.1007,-4.1007,-4.0841,-4.0837,-4.0833,-4.0829,-4.0806,-4.0809,-4.0812,0,0,0,0,0,0,0,0,0,0,0,0,0,-4.0945,-4.0947,-4.1034,-4.1033,-4.1033,-4.1007,-4.1007,-4.1007,-4.0842,-4.0837,-4.0832,-4.0827,-4.0804,-4.0808,-4.0812,0,0,0,0,0,0,0,0,0,0,0,0,0,-4.0958,-4.0948,-4.1034,-4.0948,-4.094,-4.1007,-4.1007,-4.1006,-4.0843,-4.0837,-4.0831,-4.0825,-4.0803,-4.0808,-4.0812,-4.0962,0,0,-4.0827,-4.0829,0,0,0,0,0,0,0,0,-4.0957,-4.0961,-4.0961,-4.0954,-4.0945,-4.0921,-4.0967,-4.0992,-4.0844,-4.088,-4.0829,-4.0822,-4.0849,-4.085,-4.0858,-4.0961,-4.096,-4.0827,-4.083,-4.0832,-4.0833,0,0,0,0,0,0,0,-4.0956,-4.0961,-4.1023,-4.0961,-4.0951,-4.0911,-4.0907,-4.0971,-4.0899,-4.0876,-4.0864,-4.0863,-4.0844,-4.0854,-4.0856,-4.096,-4.0827,-4.0831,-4.0834,-4.0836,-4.1186,-4.1192,0,0,0,0,0,0,-4.0967,-4.0962,-4.1024,-4.1022,-4.0936,-4.0918,-4.0912,-4.0935,-4.0897,-4.0886,-4.0868,-4.0855,-4.0849,-4.0851,-4.0855,-4.1029,-4.0832,-4.0836,-4.0839,-4.118,-4.1187,-4.1194,0,0,0,0,0,0,-4.0966,-4.0974,-4.1025,-4.0989,-4.0992,-4.0926,-4.0952,-4.0938,-4.0947,-4.0891,-4.0878,-4.0892,-4.0844,-4.0848,-4.0937,-4.1026,-4.0838,-4.0843,-4.1172,-4.1182,-4.1191,-4.1378,0,0,0,0,0,0,-4.0964,-4.0975,-4.103,-4.0991,-4.0995,-4.1107,-4.0958,-4.0941,-4.0956,-4.0939,-4.091,-4.0899,-4.084,-4.0931,-4.0942,-4.1029,-4.0846,-4.1164,-4.1176,-4.1188,-4.1364,-4.1393,-4.1418,0,0,0,0,0,-4.0961,-4.1084,-4.1034,-4.1042,-4.1062,-4.1112,-4.1115,-4.1043,-4.0964,-4.1019,-4.0983,-4.09,-4.1014,-4.0941,-4.0952,-4.1042,-4.1158,-4.1173,-4.1187,-4.1352,-4.1387,-4.1417,0,0,0,0,0,0,-4.1136,-4.1077,-4.1021,-4.1134,-4.113,-4.1084,-4.1152,-4.1082,-4.1101,-4.1084,-4.0995,-4.099,-4.1093,-4.1075,-4.0996,-4.1186,-4.1072,-4.1089,-4.1193,-4.1227,-4.1254,-4.1256,-4.085,0,0,0,0,0,-4.1187,-4.1232,-4.1179,-4.1284,-4.1284,-4.122,-4.1239,-4.1184,-4.1175,-4.1173,-4.1143,-4.114,-4.1174,-4.1199,-4.1228,-4.136,-4.1353,-4.1427,-4.1455,-4.1477,-4.1494,-4.1565,-4.1598,-4.1242,-4.1242,-4.1242,0,0,-4.1295,-4.1268,-4.1302,-4.1319,-4.1308,-4.1358,-4.1219,-4.1277,-4.1313,-4.1182,-4.1264,-4.1243,-4.1232,-4.1344,-4.1392,-4.1333,-4.159,-4.1496,-4.1514,-4.1519,-4.1583,-4.1617,-4.1647,-4.1252,-4.1251,-4.1249,0,0,-4.1515,-4.1499,-4.1586,-4.1579,-4.1565,-4.1521,-4.1542,-4.1508,-4.1489,-4.1569,-4.1472,-4.1515,-4.1576,-4.1574,-4.1581,-4.1803,-4.1728,-4.1814,-4.1957,-4.2027,-4.2055,-4.208,-4.2161,-4.2191,-4.1831,-4.1831,-4.1832,0,-4.1651,-4.172,-4.164,-4.1705,-4.1716,-4.1598,-4.1687,-4.1684,-4.1681,-4.1692,-4.1626,-4.1702,-4.1687,-4.1797,-4.1852,-4.186,-4.1883,-4.1818,-4.2057,-4.2081,-4.2103,-4.2179,-4.221,-4.1842,-4.1841,-4.184,-4.1839,0,-4.1888,-4.1939,-4.201,-4.201,-4.2029,-4.2106,-4.2038,-4.2067,-4.2011,-4.1975,-4.206,-4.2038,-4.2061,-4.2083,-4.2028,-4.2186,-4.2151,-4.2073,-4.1957,-4.2149,-4.2219,-4.2248,-4.1858,-4.1854,-4.185,-4.1848,0,0,-4.2218,-4.2173,-4.2201,-4.22,-4.2177,-4.2215,-4.2287,-4.2309,-4.2337,-4.2339,-4.2399,-4.2454,-4.2382,-4.239,-4.2334,-4.2396,-4.2576,-4.231,-4.2308,-4.2362,-4.2751,-4.2811,-4.2846,-4.2525,-4.253,-4.2534,-4.2752,0,-4.2432,-4.2551,-4.2481,-4.2611,-4.2658,-4.2548,-4.2611,-4.2604,-4.2573,-4.2609,-4.2573,-4.2615,-4.2516,-4.252,-4.2576,-4.2542,-4.2653,-4.2525,-4.2582,-4.2585,-4.2589,-4.2882,-4.2946,-4.3152,-4.2779,-4.2784,-4.2787,0,-4.2696,-4.271,-4.2845,-4.2814,-4.2831,-4.2889,-4.2905,-4.2939,-4.2931,-4.2904,-4.2914,-4.2844,-4.2914,-4.2798,-4.2895,-4.281,-4.2829,-4.2816,-4.2822,-4.2826,-4.2699,-4.2896,-4.3216,-4.3248,-4.2829,-4.2826,-4.2823,0,-4.2926,-4.2978,-4.3066,-4.3068,-4.3034,-4.3078,-4.3066,-4.3051,-4.307,-4.3083,-4.3095,-4.3117,-4.313,-4.315,-4.3089,-4.301,-4.3195,-4.3073,-4.3176,-4.3178,-4.3221,-4.3219,-4.3551,-4.3231,-4.323,-4.323,-4.3229,0,-4.3172,-4.326,-4.3169,-4.3223,-4.3318,-4.3238,-4.3335,-4.3311,-4.33,-4.3349,-4.3255,-4.3303,-4.3218,-4.3258,-4.3211,-4.33,-4.3306,-4.3287,-4.3274,-4.3296,-4.3299,-4.3309,-4.3294,-4.3238,-4.3236,-4.3234,-4.3233,0,-4.3445,-4.3387,-4.3476,-4.3437,-4.3429,-4.3502,-4.3469,-4.3518,-4.348,-4.3544,-4.3554,-4.3496,-4.3538,-4.3479,-4.3515,-4.3483,-4.3606,-4.357,-4.3609,-4.3599,-4.3706,-4.3698,-4.4056,-4.41,-4.3751,-4.3755,-4.3757,0,-4.3606,-4.3671,-4.3639,-4.3665,-4.3659,-4.3701,-4.372,-4.3644,-4.3667,-4.3663,-4.3714,-4.3749,-4.3772,-4.3846,-4.3808,-4.3836,-4.3801,-4.3925,-4.3805,-4.3827,-4.3806,-4.3803,-4.3811,-4.3951,-4.3955,-4.3958,-4.3961,0,-4.39,-4.3869,-4.3898,-4.3919,-4.3944,-4.3956,-4.3962,-4.3989,-4.3909,-4.3941,-4.3983,-4.4002,-4.4039,-4.4076,-4.4095,-4.4083,-4.4011,-4.3999,-4.4024,-4.4049,-4.407,-4.4062,-4.3678,-4.3991,-4.3988,-4.3986,-4.3984,-4.3983,-4.4123,-4.4177,-4.4163,-4.42,-4.4196,-4.4204,-4.425,-4.4218,-4.4251,-4.4276,-4.4229,-4.4284,-4.4275,-4.4292,-4.429,-4.4333,-4.4279,-4.4315,-4.4325,-4.4336,-4.4353,-4.4062,-4.4335,-4.4334,-4.4334,-4.4333,-4.4332,0,-4.4414,-4.44,-4.4434,-4.4446,-4.4476,-4.4403,-4.4406,-4.4436,-4.4485,-4.4483,-4.4508,-4.4559,-4.4594,-4.4559,-4.4588,-4.463,-4.4597,-4.464,-4.4637,-4.4636,-4.4398,-4.4374,-4.4666,-4.4666,-4.4666,-4.4666,-4.4666,-4.4666,-4.4569,-4.4656,-4.4623,-4.4708,-4.4693,-4.4746,-4.4755,-4.4762,-4.476,-4.482,-4.4849,-4.4825,-4.4811,-4.4838,-4.4868,-4.4857,-4.4873,-4.4929,-4.4907,-4.4685,-4.4653,-4.4621,-4.4598,-4.4932,-4.4933,-4.5141,-4.5143,-4.5144]},{"header":{"parameterUnit":"m.s-1","parameterCategory":1,"la1":30.2991,"la2":30.254,"lo1":-89.0895,"lo2":-89.0444,"dy":0.0017,"dx":0.0017,"nx":28,"ny":28,"refTime":"2024-12-24T03:00:00:Z","depth":0,"parameterNumber":3,"parameterNumberName":"V-component_of_WINDS"},"data":[0,0,0,0,0,0,0,0,0,0,0,0,0,0,0,0,0,0,0,0,0,0,0,0,0,0,0,0,0,0,0,0,0,0,0,0,0,0,0,0,0,0,0,0,0,0,0,0,0,0,0,0,0,0,0,0,0,0,-0.0945,-0.0946,0,-0.102,-0.1021,-0.1021,-0.1003,-0.1002,-0.1,-0.0999,-0.1081,-0.1085,-0.1088,0,0,0,0,0,0,0,0,0,0,0,0,0,-0.079,-0.0793,-0.0945,-0.0946,-0.0947,-0.102,-0.1021,-0.1022,-0.1004,-0.1002,-0.1,-0.0998,-0.108,-0.1084,-0.1088,0,0,0,0,0,0,0,0,0,0,0,0,0,-0.086,-0.0794,-0.0945,-0.0946,-0.0947,-0.1019,-0.1021,-0.1022,-0.1004,-0.1002,-0.1,-0.0998,-0.1079,-0.1084,-0.1089,-0.1166,0,0,-0.1105,-0.1108,0,0,0,0,0,0,0,0,-0.0856,-0.0866,-0.0945,-0.0946,-0.0947,-0.1,-0.0996,-0.107,-0.1005,-0.0983,-0.0999,-0.0996,-0.1056,-0.1063,-0.1082,-0.117,-0.1173,-0.1106,-0.1109,-0.1111,-0.1113,0,0,0,0,0,0,0,-0.0851,-0.0863,-0.0975,-0.0946,-0.0948,-0.0944,-0.0952,-0.101,-0.1031,-0.0984,-0.0983,-0.0992,-0.1057,-0.1077,-0.1084,-0.1174,-0.1106,-0.111,-0.1114,-0.1116,-0.1328,-0.133,0,0,0,0,0,0,-0.0845,-0.0859,-0.0972,-0.0977,-0.0895,-0.0949,-0.0957,-0.0985,-0.103,-0.1035,-0.0994,-0.0991,-0.1069,-0.1078,-0.1087,-0.118,-0.1111,-0.1116,-0.1119,-0.1326,-0.1328,-0.1331,0,0,0,0,0,0,-0.0842,-0.0855,-0.0969,-0.0917,-0.0932,-0.0954,-0.0985,-0.0988,-0.1009,-0.1037,-0.1041,-0.1011,-0.1068,-0.1079,-0.1146,-0.1183,-0.1119,-0.1124,-0.1323,-0.1326,-0.133,-0.1367,0,0,0,0,0,0,-0.0837,-0.0854,-0.0883,-0.0918,-0.0934,-0.1026,-0.0988,-0.0991,-0.1017,-0.1014,-0.1055,-0.1059,-0.1067,-0.1138,-0.1151,-0.1189,-0.1128,-0.132,-0.1324,-0.1329,-0.1363,-0.1371,-0.1379,0,0,0,0,0,-0.0832,-0.0892,-0.0885,-0.0898,-0.0971,-0.1028,-0.1038,-0.1044,-0.102,-0.105,-0.1068,-0.1058,-0.1176,-0.1145,-0.116,-0.12,-0.1317,-0.1323,-0.1328,-0.1359,-0.137,-0.1379,0,0,0,0,0,0,-0.0863,-0.0897,-0.0889,-0.0962,-0.0992,-0.1025,-0.1063,-0.1055,-0.1094,-0.109,-0.1097,-0.1107,-0.1175,-0.1193,-0.1158,-0.1276,-0.1243,-0.1252,-0.1262,-0.1272,-0.128,-0.1276,-0.1132,0,0,0,0,0,-0.0878,-0.092,-0.0948,-0.101,-0.1025,-0.1041,-0.1066,-0.1068,-0.11,-0.1114,-0.1137,-0.117,-0.1214,-0.1244,-0.1286,-0.1364,-0.1373,-0.1399,-0.1407,-0.1413,-0.1422,-0.1464,-0.1476,-0.1349,-0.1349,-0.1349,0,0,-0.091,-0.0934,-0.0961,-0.1016,-0.104,-0.1085,-0.1052,-0.1101,-0.1135,-0.1122,-0.1186,-0.1203,-0.1241,-0.1313,-0.1346,-0.1331,-0.1458,-0.142,-0.1425,-0.143,-0.1471,-0.1483,-0.1494,-0.1353,-0.1352,-0.1352,0,0,-0.0993,-0.1014,-0.1067,-0.1091,-0.1126,-0.1136,-0.1148,-0.1182,-0.1193,-0.1256,-0.1247,-0.1287,-0.1364,-0.1391,-0.1414,-0.1503,-0.1496,-0.1517,-0.1561,-0.1602,-0.1613,-0.1622,-0.1655,-0.1666,-0.1524,-0.1524,-0.1525,0,-0.1029,-0.1095,-0.1097,-0.1146,-0.1171,-0.1158,-0.1213,-0.1236,-0.1284,-0.1302,-0.1283,-0.1378,-0.1402,-0.148,-0.1502,-0.1521,-0.1537,-0.1514,-0.161,-0.162,-0.1628,-0.166,-0.1672,-0.1527,-0.1527,-0.1526,-0.1526,0,-0.1139,-0.1184,-0.1224,-0.1268,-0.1297,-0.1349,-0.1359,-0.1389,-0.1387,-0.1399,-0.1464,-0.1491,-0.1539,-0.1557,-0.1557,-0.1636,-0.1625,-0.1608,-0.1576,-0.1643,-0.1673,-0.1685,-0.153,-0.153,-0.1529,-0.1528,0,0,-0.1247,-0.1288,-0.1303,-0.1322,-0.1358,-0.1395,-0.1446,-0.149,-0.1516,-0.1548,-0.1592,-0.1655,-0.1639,-0.1666,-0.1668,-0.1705,-0.1774,-0.1683,-0.1684,-0.1701,-0.1864,-0.1878,-0.1892,-0.1768,-0.177,-0.1772,-0.1861,0,-0.1333,-0.1422,-0.1423,-0.1505,-0.1548,-0.1534,-0.1579,-0.1606,-0.1618,-0.1657,-0.1671,-0.1716,-0.169,-0.1707,-0.1741,-0.1758,-0.1808,-0.1752,-0.1811,-0.1814,-0.1805,-0.1908,-0.1923,-0.2006,-0.1873,-0.1875,-0.1876,0,-0.1447,-0.1481,-0.1567,-0.1595,-0.1613,-0.1653,-0.1694,-0.173,-0.1761,-0.1767,-0.1795,-0.1791,-0.1845,-0.1808,-0.1882,-0.1844,-0.1868,-0.188,-0.1883,-0.1891,-0.1851,-0.1921,-0.2033,-0.2046,-0.1895,-0.1893,-0.1892,0,-0.1519,-0.1586,-0.1646,-0.1663,-0.1697,-0.1726,-0.1742,-0.177,-0.1796,-0.1831,-0.1849,-0.189,-0.1914,-0.1946,-0.1954,-0.1926,-0.2028,-0.1993,-0.2037,-0.2037,-0.2062,-0.2061,-0.2182,-0.2073,-0.2073,-0.2072,-0.2072,0,-0.1617,-0.1671,-0.1678,-0.1716,-0.1775,-0.1776,-0.1835,-0.1849,-0.1873,-0.1914,-0.1904,-0.1943,-0.1949,-0.1989,-0.1996,-0.2057,-0.2067,-0.2075,-0.2076,-0.2077,-0.2076,-0.2095,-0.2091,-0.2076,-0.2075,-0.2074,-0.2074,0,-0.171,-0.1716,-0.1781,-0.1807,-0.1815,-0.1857,-0.1881,-0.1917,-0.1925,-0.1977,-0.1989,-0.2004,-0.2051,-0.2061,-0.2117,-0.2121,-0.2194,-0.2188,-0.2183,-0.2184,-0.2228,-0.2224,-0.2368,-0.2387,-0.2263,-0.2264,-0.2265,0,-0.1773,-0.1814,-0.1843,-0.1868,-0.1885,-0.1926,-0.1952,-0.1953,-0.1981,-0.2018,-0.205,-0.2094,-0.2131,-0.2206,-0.2223,-0.2265,-0.2263,-0.2309,-0.2269,-0.2269,-0.2266,-0.2264,-0.2269,-0.2319,-0.232,-0.2321,-0.2322,0,-0.1886,-0.1886,-0.1923,-0.1961,-0.1991,-0.2021,-0.205,-0.2072,-0.2077,-0.2108,-0.2154,-0.2182,-0.2237,-0.2283,-0.2325,-0.2343,-0.2334,-0.2333,-0.2346,-0.2349,-0.2345,-0.235,-0.2207,-0.2331,-0.233,-0.233,-0.2329,-0.2329,-0.1967,-0.2002,-0.2028,-0.2069,-0.209,-0.2116,-0.2151,-0.2163,-0.2201,-0.2245,-0.2243,-0.2295,-0.2323,-0.2378,-0.2398,-0.2439,-0.2425,-0.2443,-0.2448,-0.2453,-0.2458,-0.2336,-0.2446,-0.2446,-0.2446,-0.2446,-0.2446,0,-0.2081,-0.2096,-0.2133,-0.2172,-0.2205,-0.219,-0.222,-0.2249,-0.2293,-0.2319,-0.2354,-0.2407,-0.245,-0.2469,-0.2512,-0.2541,-0.2538,-0.2553,-0.2552,-0.2557,-0.2468,-0.2453,-0.2554,-0.2554,-0.2554,-0.2554,-0.2554,-0.2554,-0.2144,-0.2203,-0.2206,-0.2275,-0.229,-0.2338,-0.2357,-0.2382,-0.2403,-0.2461,-0.2496,-0.2507,-0.2531,-0.2575,-0.2614,-0.2619,-0.2636,-0.2653,-0.2656,-0.2574,-0.2563,-0.2552,-0.2539,-0.2656,-0.2656,-0.2742,-0.2742,-0.2743]}]]